TimeCST,TemperatureF,Dew PointF,Humidity,Sea Level PressureIn,VisibilityMPH,Wind Direction,Wind SpeedMPH,Gust SpeedMPH,PrecipitationIn,Events,Conditions,WindDirDegrees,DateUTC
12:54 AM,46.0,42.1,86,30.97,10.0,Calm,Calm,-,N/A,,Scattered Clouds,0,2013-02-09 06:54:00
1:02 AM,46.4,42.8,87,30.15,10.0,Variable,3.5,-,N/A,,Mostly Cloudy,0,2013-02-09 07:02:00
1:54 AM,46.9,42.1,83,30.23,10.0,Calm,Calm,-,N/A,,Overcast,0,2013-02-09 07:54:00
2:54 AM,46.9,42.1,83,30.95,10.0,Calm,Calm,-,N/A,,Overcast,0,2013-02-09 08:54:00
3:54 AM,46.9,42.1,83,30.22,10.0,Calm,Calm,-,N/A,,Overcast,0,2013-02-09 09:54:00
4:45 AM,46.4,42.8,87,30.14,10.0,NE,3.5,-,N/A,,Overcast,40,2013-02-09 10:45:00
4:54 AM,46.0,41.0,83,30.22,10.0,Variable,4.6,-,N/A,,Overcast,0,2013-02-09 10:54:00
5:45 AM,44.6,41.0,87,30.14,9.0,Calm,Calm,-,N/A,,Overcast,0,2013-02-09 11:45:00
5:54 AM,45.0,41.0,86,30.22,9.0,Variable,3.5,-,N/A,,Overcast,0,2013-02-09 11:54:00
6:06 AM,44.6,41.0,87,30.14,8.0,Calm,Calm,-,N/A,,Overcast,0,2013-02-09 12:06:00
6:54 AM,45.0,41.0,86,30.24,9.0,Calm,Calm,-,N/A,,Overcast,0,2013-02-09 12:54:00
7:52 AM,46.4,42.8,87,30.17,8.0,Variable,3.5,-,N/A,,Overcast,0,2013-02-09 13:52:00
7:54 AM,46.0,42.1,86,30.26,8.0,NE,4.6,-,N/A,,Overcast,40,2013-02-09 13:54:00
8:54 AM,48.0,44.1,86,30.26,10.0,Variable,3.5,-,N/A,,Overcast,0,2013-02-09 14:54:00
9:54 AM,51.1,45.0,80,30.26,10.0,Variable,3.5,-,N/A,,Overcast,0,2013-02-09 15:54:00
10:54 AM,54.0,48.0,80,30.24,10.0,Variable,3.5,-,N/A,,Overcast,0,2013-02-09 16:54:00
11:54 AM,57.0,48.9,74,30.21,10.0,Variable,4.6,-,N/A,,Overcast,0,2013-02-09 17:54:00
12:54 PM,59.0,51.1,75,30.90,10.0,SE,4.6,-,N/A,,Overcast,140,2013-02-09 18:54:00
1:54 PM,60.1,52.0,75,30.15,10.0,Variable,3.5,-,N/A,,Overcast,0,2013-02-09 19:54:00
2:54 PM,60.1,53.1,78,30.12,10.0,ESE,4.6,-,N/A,,Overcast,120,2013-02-09 20:54:00
3:54 PM,62.1,54.0,75,30.11,10.0,Calm,Calm,-,N/A,,Overcast,0,2013-02-09 21:54:00
4:54 PM,62.1,55.0,78,30.10,10.0,Calm,Calm,-,N/A,,Overcast,0,2013-02-09 22:54:00
5:32 PM,60.8,55.4,82,30.00,10.0,Calm,Calm,-,N/A,,Overcast,0,2013-02-09 23:32:00
5:54 PM,60.1,55.0,83,30.80,10.0,Calm,Calm,-,N/A,,Mostly Cloudy,0,2013-02-09 23:54:00
6:54 PM,60.1,55.0,83,30.79,10.0,Calm,Calm,-,N/A,,Overcast,0,2013-02-10 00:54:00
7:29 PM,60.8,55.4,82,29.97,10.0,Variable,4.6,-,N/A,,Mostly Cloudy,0,2013-02-10 01:29:00
7:36 PM,62.6,55.4,77,29.96,10.0,Variable,5.8,-,N/A,,Mostly Cloudy,0,2013-02-10 01:36:00
7:54 PM,62.1,55.9,80,30.04,10.0,Variable,5.8,-,N/A,,Scattered Clouds,0,2013-02-10 01:54:00
8:54 PM,61.0,55.0,81,30.06,10.0,Variable,6.9,-,N/A,,Clear,0,2013-02-10 02:54:00
9:54 PM,61.0,55.9,83,30.05,10.0,Variable,4.6,-,N/A,,Mostly Cloudy,0,2013-02-10 03:54:00
10:09 PM,60.8,55.4,82,29.95,10.0,Calm,Calm,-,N/A,,Mostly Cloudy,0,2013-02-10 04:09:00
10:54 PM,62.1,57.0,84,30.04,10.0,Variable,4.6,-,N/A,,Overcast,0,2013-02-10 04:54:00
11:54 PM,62.1,57.9,86,30.04,10.0,Calm,Calm,-,N/A,,Overcast,0,2013-02-10 05:54:00